Stations météo

Publicité
Nantes, France (7222): Température de l'air & dewpoint: 22.05.2020 09:00:00 - 28.05.2020 09:00:00 (CEST)Nantes, France (7222): Température de l'air 5cm: 22.05.2020 09:00:00 - 28.05.2020 09:00:00 (CEST)Nantes, France (7222): Température de l'air -20cm & Température de l'air -100cm: 22.05.2020 09:00:00 - 28.05.2020 09:00:00 (CEST)Nantes, France (7222): Vitesse du vent & gusts: 22.05.2020 09:00:00 - 28.05.2020 09:00:00 (CEST)Nantes, France (7222): Direction du vent: 22.05.2020 09:00:00 - 28.05.2020 09:00:00 (CEST)Nantes, France (7222): reduced air pressure: 22.05.2020 09:00:00 - 28.05.2020 09:00:00 (CEST)Nantes, France (7222): visibility: 22.05.2020 09:00:00 - 28.05.2020 09:00:00 (CEST)Nantes, France (7222): Ensoleillement: 22.05.2020 09:00:00 - 28.05.2020 09:00:00 (CEST)Nantes, France (7222): Quantités de précipitations: 22.05.2020 09:00:00 - 28.05.2020 09:00:00 (CEST)
Date & Time tt [°C] td [°C] tt 5cm [°C] tt -20cm [°C] tt -100cm [°C] ff [km/h] ff [knt] fx [km/h] fx [knt] dd ppp [hPa] vv [km] sd [min] rr [mm]
28.05.2020 09:00:00 - - - - - - - - - - - - - -
28.05.2020 08:00:00 17,1 10,7 14,5 17,2 14,9 16 9 28 15 NE 1028,7 55 60 0,0
28.05.2020 07:00:00 16,3 10,6 13,7 17,4 14,9 14 8 32 18 NE 1028,8 35 10 0,0
28.05.2020 06:00:00 16,7 11,0 14,0 17,5 14,9 16 9 25 14 NE 1028,9 60 0 0,0
28.05.2020 05:00:00 17,2 11,2 14,7 17,6 15,0 16 9 34 19 NE 1028,9 60 0 0,0
28.05.2020 04:00:00 17,9 11,2 15,3 17,6 14,9 20 11 36 20 ENE 1028,9 59 0 0,0
28.05.2020 03:00:00 18,8 11,1 15,8 17,6 14,9 15 8 29 16 NE 1028,9 56 0 0,0
28.05.2020 02:00:00 19,7 10,9 15,9 17,7 14,9 11 6 22 12 NE 1029,0 53 0 0,0
28.05.2020 01:00:00 20,0 10,1 15,6 17,8 14,9 10 5 16 9 NE 1029,2 54 0 0,0
28.05.2020 00:00:00 20,9 9,8 14,0 17,8 14,9 10 5 19 10 ENE 1029,3 59 0 0,0
27.05.2020 23:00:00 22,1 9,6 16,1 17,8 14,9 12 7 21 12 ENE 1029,3 60 0 0,0
27.05.2020 22:00:00 23,2 8,8 17,0 17,7 14,9 14 7 30 16 ENE 1028,9 60 23 0,0
27.05.2020 21:00:00 25,2 9,1 22,6 17,7 14,9 19 11 42 23 ENE 1028,5 49 60 0,0
27.05.2020 20:00:00 26,3 9,2 26,9 17,6 14,9 24 13 44 24 ENE 1028,3 57 60 0,0
27.05.2020 19:00:00 26,7 8,6 35,3 17,4 14,9 25 14 43 23 ENE 1028,4 47 60 0,0
27.05.2020 18:00:00 27,2 8,6 39,4 17,3 14,9 24 13 50 27 NE 1028,8 32 60 0,0
27.05.2020 17:00:00 26,9 7,4 43,2 17,1 14,8 24 13 45 24 ENE 1029,2 30 60 0,0
27.05.2020 16:00:00 26,9 8,8 44,7 17,0 14,9 23 12 50 27 NE 1029,5 19 60 0,0
27.05.2020 15:00:00 26,5 8,0 43,7 16,9 14,9 29 16 56 30 ENE 1029,9 32 60 0,0
27.05.2020 14:00:00 25,7 8,7 41,9 16,9 14,9 28 15 55 30 ENE 1030,3 34 60 0,0
27.05.2020 13:00:00 25,2 7,8 40,7 16,9 14,9 33 18 49 26 E 1030,7 39 60 0,0
27.05.2020 12:00:00 24,4 9,2 38,7 16,8 14,8 26 14 44 24 ENE 1031,2 44 60 0,0
27.05.2020 11:00:00 22,9 11,0 35,6 16,9 14,9 18 10 35 19 NE 1031,6 47 60 0,0
27.05.2020 10:00:00 20,7 9,9 27,2 16,9 14,8 13 7 31 17 NE 1031,9 47 60 0,0
27.05.2020 09:00:00 18,9 10,5 17,5 17,0 14,8 15 8 31 17 NE 1031,9 49 60 0,0
27.05.2020 08:00:00 16,8 10,2 13,9 17,0 14,9 18 10 29 16 NE 1031,9 48 60 0,0
27.05.2020 07:00:00 16,1 10,4 12,4 17,1 14,9 10 6 22 12 NE 1031,5 29 7 0,0
27.05.2020 06:00:00 16,1 10,2 12,5 17,2 14,9 10 6 22 12 NE 1031,4 45 0 0,0
27.05.2020 05:00:00 16,3 10,2 13,1 17,2 14,8 13 7 27 15 NE 1031,2 47 0 0,0
27.05.2020 04:00:00 16,7 10,5 13,1 17,3 14,8 10 5 26 14 NNE 1031,3 48 0 0,0
27.05.2020 03:00:00 17,3 10,7 14,1 17,3 14,8 13 7 26 14 NE 1031,3 46 0 0,0
27.05.2020 02:00:00 18,3 10,6 15,0 17,4 14,7 11 6 28 15 NE 1031,5 50 0 0,0
27.05.2020 01:00:00 19,6 9,5 15,5 17,4 14,8 14 8 26 14 NE 1031,5 59 0 0,0
27.05.2020 00:00:00 20,8 8,8 14,9 17,5 14,8 9 5 19 10 NE 1031,5 60 0 0,0
26.05.2020 23:00:00 22,2 8,0 17,4 17,4 14,8 12 6 23 12 NE 1031,5 60 0 0,0
26.05.2020 22:00:00 23,2 7,7 18,5 17,4 14,8 12 7 30 16 NE 1030,9 60 22 0,0
26.05.2020 21:00:00 24,6 7,3 22,2 17,3 14,8 18 10 40 22 NE 1030,7 51 60 0,0
26.05.2020 20:00:00 25,4 8,0 25,7 17,3 14,8 23 12 43 23 NE 1030,3 47 60 0,0
26.05.2020 19:00:00 26,1 8,1 34,8 17,1 14,8 21 11 43 23 NE 1030,5 35 60 0,0
26.05.2020 18:00:00 26,2 9,1 38,5 17,0 14,8 20 11 45 25 NNE 1030,8 33 60 0,0
26.05.2020 17:00:00 26,3 9,2 41,1 16,9 14,8 22 12 40 22 NE 1031,2 37 60 0,0
26.05.2020 16:00:00 25,7 9,1 42,5 16,8 14,8 23 13 42 23 NE 1031,5 40 60 0,0
26.05.2020 15:00:00 25,3 10,0 41,8 16,7 14,8 18 10 45 24 NE 1032,0 38 60 0,0
26.05.2020 14:00:00 24,3 9,5 41,1 16,6 14,8 23 12 45 25 NE 1032,6 41 60 0,0
26.05.2020 13:00:00 23,7 9,3 38,2 16,6 14,8 23 12 44 24 ENE 1033,0 43 60 0,0
26.05.2020 12:00:00 22,6 9,4 36,7 16,6 14,8 18 10 40 22 NE 1033,2 37 58 0,0
26.05.2020 11:00:00 21,6 10,7 32,2 16,6 14,8 18 10 35 19 NE 1033,5 41 60 0,0
26.05.2020 10:00:00 19,5 10,8 25,0 16,6 14,8 16 9 28 15 NE 1033,5 20 60 0,0
26.05.2020 09:00:00 18,3 11,4 14,9 16,7 14,8 9 5 21 11 NE 1033,4 44 60 0,0
26.05.2020 08:00:00 16,2 11,1 11,8 16,8 14,8 9 5 16 9 NNE 1033,2 41 60 0,0
26.05.2020 07:00:00 13,9 10,3 11,6 16,9 14,8 6 4 14 8 NNE 1033,0 26 6 0,0
26.05.2020 06:00:00 13,8 10,2 11,9 17,0 14,8 7 4 16 9 NNE 1032,7 49 0 0,0
26.05.2020 05:00:00 14,6 10,4 11,4 17,0 14,8 8 5 18 10 NNE 1032,6 50 0 0,0
26.05.2020 04:00:00 14,7 10,9 10,7 17,1 14,7 9 5 19 10 NNE 1032,6 50 0 0,0
26.05.2020 03:00:00 15,2 11,2 10,3 17,1 14,8 9 5 21 11 NNE 1032,4 54 0 0,0
26.05.2020 02:00:00 14,2 10,8 10,2 17,2 14,8 9 5 16 9 N 1032,4 53 0 0,0
26.05.2020 01:00:00 14,8 10,4 11,3 17,2 14,8 7 4 19 10 NNE 1032,3 57 0 0,0
26.05.2020 00:00:00 16,6 10,2 13,6 17,2 14,8 7 4 13 7 NNE 1032,2 60 0 0,0
25.05.2020 23:00:00 20,6 9,8 16,5 17,2 14,8 8 4 18 10 NE 1032,0 60 0 0,0
25.05.2020 22:00:00 21,7 9,6 17,9 17,1 14,8 9 5 25 14 NE 1031,5 60 21 0,0
25.05.2020 21:00:00 22,9 9,3 19,6 17,0 14,7 16 8 32 17 NE 1030,9 49 60 0,0
25.05.2020 20:00:00 23,6 8,8 21,8 17,0 14,8 15 8 35 19 NE 1030,7 56 60 0,0
25.05.2020 19:00:00 24,0 8,8 25,0 16,8 14,7 19 11 36 19 NE 1030,7 46 60 0,0
25.05.2020 18:00:00 24,0 9,9 28,6 16,7 14,7 16 9 37 20 NE 1031,0 37 60 0,0
25.05.2020 17:00:00 24,0 9,9 33,7 16,5 14,7 22 12 41 22 NE 1031,1 42 60 0,0
25.05.2020 16:00:00 23,8 9,8 38,3 16,4 14,7 21 12 38 21 NE 1031,6 41 60 0,0
25.05.2020 15:00:00 22,7 10,2 36,7 16,3 14,7 23 12 45 25 ENE 1032,0 43 60 0,0
25.05.2020 14:00:00 22,3 9,8 33,5 16,2 14,7 19 10 43 23 NE 1032,3 44 60 0,0
25.05.2020 13:00:00 21,2 10,4 28,5 16,2 14,7 19 10 34 18 NE 1032,5 19 60 0,0
25.05.2020 12:00:00 20,4 10,8 23,7 16,2 14,7 14 8 30 16 NE 1032,8 38 60 0,0
25.05.2020 11:00:00 19,1 10,4 19,6 16,2 14,7 16 9 25 14 E 1033,1 32 60 0,0
25.05.2020 10:00:00 17,4 9,6 16,2 16,3 14,7 13 7 24 13 ENE 1033,4 22 60 0,0
25.05.2020 09:00:00 15,7 8,4 13,5 16,3 14,7 11 6 26 14 NE 1033,6 16 60 0,0
25.05.2020 08:00:00 14,4 7,7 12,3 16,4 14,7 17 9 27 15 ENE 1033,3 11 60 0,0
25.05.2020 07:00:00 13,4 8,5 12,2 16,4 14,7 16 9 29 16 ENE 1033,0 10 6 0,0
25.05.2020 06:00:00 13,4 9,4 12,4 16,5 14,7 17 9 28 15 ENE 1032,8 42 0 0,0
25.05.2020 05:00:00 14,0 9,8 12,5 16,5 14,7 12 6 24 13 NE 1032,6 41 0 0,0
25.05.2020 04:00:00 13,5 10,5 12,4 16,6 14,7 9 5 21 11 NE 1032,6 30 0 0,0
25.05.2020 03:00:00 13,7 10,9 12,8 16,7 14,7 11 6 29 16 NNE 1032,6 29 0 0,0
25.05.2020 02:00:00 14,3 10,7 13,1 16,7 14,7 13 7 28 15 NNE 1032,6 34 0 0,0
25.05.2020 01:00:00 15,5 10,3 12,9 16,7 14,7 14 7 27 15 NE 1032,7 42 0 0,0
25.05.2020 00:00:00 16,1 9,7 12,4 16,7 14,7 10 5 23 13 NNE 1032,6 54 0 0,0
24.05.2020 23:00:00 16,3 9,5 12,4 16,7 14,7 8 5 20 11 NNE 1032,4 58 0 0,0
24.05.2020 22:00:00 19,1 8,7 16,0 16,6 14,7 10 5 23 12 NE 1032,0 59 20 0,0
24.05.2020 21:00:00 20,2 8,2 17,7 16,6 14,7 14 7 26 14 NE 1031,9 48 60 0,0
24.05.2020 20:00:00 20,7 8,7 20,3 16,5 14,7 14 8 27 15 NE 1031,9 46 60 0,0
24.05.2020 19:00:00 21,2 8,1 23,4 16,4 14,7 13 7 30 16 NNE 1032,2 46 60 0,0
24.05.2020 18:00:00 21,6 7,4 27,6 16,2 14,7 16 9 39 21 ENE 1032,5 55 60 0,0
24.05.2020 17:00:00 21,4 6,1 32,8 16,1 14,7 13 7 26 14 NE 1032,9 57 60 0,0
24.05.2020 16:00:00 20,8 6,0 35,6 16,0 14,7 10 5 27 15 ENE 1033,3 50 60 0,0
24.05.2020 15:00:00 20,1 6,1 35,5 15,9 14,7 10 6 25 13 ENE 1033,7 52 60 0,0
24.05.2020 14:00:00 19,5 6,6 31,1 15,8 14,7 8 4 25 13 NNE 1033,8 19 60 0,0
24.05.2020 13:00:00 18,6 7,7 26,1 15,8 14,7 6 4 38 20 NE 1033,9 34 60 0,0
24.05.2020 12:00:00 17,5 8,4 21,8 15,8 14,6 6 3 22 12 ESE 1034,2 20 60 0,0
24.05.2020 11:00:00 16,8 7,7 18,2 15,9 14,6 8 4 18 10 NE 1034,6 19 56 0,0
24.05.2020 10:00:00 15,1 8,6 15,1 16,0 14,7 8 4 15 8 NNE 1035,0 32 60 0,0
24.05.2020 09:00:00 14,1 9,9 9,9 16,1 14,7 4 2 9 5 NNE 1034,9 44 60 0,0
24.05.2020 08:00:00 10,1 9,5 4,1 16,2 14,7 5 3 9 5 NNW 1034,6 20 60 0,2
24.05.2020 07:00:00 7,2 6,8 2,3 16,4 14,7 4 2 9 5 N 1034,2 20 13 0,0
24.05.2020 06:00:00 7,5 7,2 2,6 16,5 14,7 4 2 9 5 N 1033,9 36 0 0,0
24.05.2020 05:00:00 6,8 6,2 3,0 16,6 14,7 6 4 9 5 NNW 1033,8 36 0 0,0
24.05.2020 04:00:00 7,6 6,8 4,4 16,8 14,6 0 0 10 5 N 1033,8 15 0 0,0
24.05.2020 03:00:00 9,2 8,0 5,8 16,8 14,6 5 3 15 8 NNW 1034,0 20 0 0,0
24.05.2020 02:00:00 10,0 8,6 7,3 16,9 14,6 7 4 19 10 WNW 1033,9 34 0 0,0
24.05.2020 01:00:00 10,5 8,8 7,4 17,0 14,6 8 5 14 8 WNW 1033,7 37 0 0,0
24.05.2020 00:00:00 10,7 8,6 8,6 17,0 14,6 4 2 10 6 W 1033,6 30 0 0,0
23.05.2020 23:00:00 11,3 9,0 9,6 17,1 14,6 5 3 14 8 SW 1033,3 38 0 0,0
23.05.2020 22:00:00 13,2 9,4 13,5 17,0 14,6 12 7 30 16 W 1032,6 40 19 0,0
23.05.2020 21:00:00 14,8 9,4 15,2 17,0 14,6 19 10 35 19 W 1032,6 20 54 0,0
23.05.2020 20:00:00 16,4 8,4 17,7 16,9 14,7 22 12 39 21 W 1032,0 40 60 0,0
23.05.2020 19:00:00 17,6 6,5 21,6 16,8 14,6 26 14 44 24 W 1031,9 46 60 0,0
23.05.2020 18:00:00 18,3 7,4 24,8 16,7 14,6 22 12 37 20 W 1031,7 41 60 0,0
23.05.2020 17:00:00 18,4 6,9 28,1 16,6 14,6 23 13 42 23 W 1031,6 20 51 0,0
23.05.2020 16:00:00 19,1 7,8 33,6 16,5 14,6 25 14 40 22 W 1031,3 20 58 0,0
23.05.2020 15:00:00 19,0 7,1 32,4 16,4 14,6 23 13 42 23 W 1031,2 20 56 0,0
23.05.2020 14:00:00 19,2 8,5 26,8 16,4 14,6 21 12 45 24 W 1030,9 20 49 0,0
23.05.2020 13:00:00 18,8 10,1 22,2 16,4 14,6 19 10 32 17 W 1030,7 20 47 0,0
23.05.2020 12:00:00 16,9 7,8 21,4 16,4 14,6 19 11 35 19 W 1030,4 19 42 0,0
23.05.2020 11:00:00 16,7 9,1 17,6 16,5 14,6 19 10 32 17 W 1029,9 20 40 0,0
23.05.2020 10:00:00 15,1 11,3 15,3 16,5 14,6 10 6 18 10 W 1029,2 20 21 0,0
23.05.2020 09:00:00 13,4 11,1 12,7 16,6 14,6 9 5 18 10 SW 1028,8 46 6 0,0
23.05.2020 08:00:00 11,5 10,1 12,4 16,6 14,5 5 3 7 4 SSW 1028,5 41 0 0,0
23.05.2020 07:00:00 11,4 9,8 12,5 16,7 14,6 4 2 18 10 WSW 1027,9 43 0 0,0
23.05.2020 06:00:00 11,9 9,6 13,3 16,7 14,5 14 8 27 15 NW 1027,4 19 0 0,6
23.05.2020 05:00:00 13,7 10,3 13,8 16,8 14,5 9 5 21 11 W 1027,3 18 0 0,0
23.05.2020 04:00:00 14,1 10,9 14,0 16,8 14,5 11 6 20 11 W 1026,7 17 0 0,0
23.05.2020 03:00:00 14,2 11,2 14,2 16,9 14,5 13 7 29 16 W 1026,4 16 0 0,0
23.05.2020 02:00:00 14,5 11,3 14,5 16,9 14,5 13 7 21 11 W 1026,0 16 0 0,0
23.05.2020 01:00:00 14,6 11,6 14,5 16,9 14,5 13 7 19 11 W 1025,8 15 0 0,0
23.05.2020 00:00:00 14,7 11,3 14,5 16,9 14,5 10 6 23 13 W 1025,4 16 0 0,0
22.05.2020 23:00:00 14,9 11,1 14,6 16,9 14,5 11 6 22 12 WSW 1025,1 17 0 0,0
22.05.2020 22:00:00 15,2 10,8 14,8 16,9 14,5 13 7 21 11 W 1024,7 18 0 0,0
22.05.2020 21:00:00 16,2 8,4 16,5 16,9 14,5 15 8 27 14 W 1024,3 43 42 0,0
22.05.2020 20:00:00 17,4 8,8 18,7 16,8 14,5 17 9 31 17 W 1024,0 43 0 0,0
22.05.2020 19:00:00 18,3 9,4 20,4 16,8 14,5 17 9 29 16 WSW 1023,8 18 0 0,0
22.05.2020 18:00:00 19,7 11,7 23,7 16,6 14,4 15 8 34 18 W 1023,6 20 25 0,0
22.05.2020 17:00:00 20,2 12,9 26,0 16,6 14,4 15 8 31 17 W 1023,6 20 47 0,0
22.05.2020 16:00:00 21,5 13,9 29,9 16,5 14,4 16 9 37 20 WSW 1023,5 19 58 0,0
22.05.2020 15:00:00 21,2 14,1 23,1 16,6 14,5 21 11 35 19 WSW 1023,6 19 19 0,0
22.05.2020 14:00:00 19,7 14,9 20,7 16,5 14,4 18 10 34 18 WSW 1023,4 39 5 0,0
22.05.2020 13:00:00 18,6 15,1 19,2 16,6 14,5 19 10 34 19 WSW 1023,1 54 0 0,0
22.05.2020 12:00:00 17,2 16,1 18,6 16,6 14,4 14 8 30 16 WSW 1022,9 19 0 0,0
22.05.2020 11:00:00 17,4 15,4 17,9 16,6 14,4 17 9 34 18 WSW 1022,3 14 0 0,0
22.05.2020 10:00:00 17,0 15,0 17,7 16,6 14,4 15 8 28 15 W 1021,8 20 0 0,0
22.05.2020 09:00:00 16,7 14,9 16,3 16,7 14,4 11 6 28 15 WSW 1021,1 39 0 0,0

tt = Température de l'air
td = dewpoint
tt 5cm = Température de l'air 5cm
tt -20cm = Température de l'air -20cm
tt -100cm = Température de l'air -100cm
ff = Vitesse du vent
fx = gusts
dd = Direction du vent
ppp = reduced air pressure
vv = visibility
sd = Ensoleillement
rr = Quantités de précipitations

stations d'obs. à proximité